Find Starlink 34796

NORAD ID: 65205 Int'l Des: 2025-176 Owner: SPXS Country: US Constellation: starlink operational
LEOCIRCULAR

Current View

Loading 3D Globe...

About Starlink 34796

Starlink 34796 (NORAD 65205) is a starlink constellation satellite (v2 mini) launched Aug 14, 2025 by SPXS of US. It operates in LEO, CIRCULAR orbit with a mass of 575.00 kg.

Upcoming Passes

Passes for default location (London). Set your location on the main map for personalized predictions.

Altitude History

Loading altitude history...

Two-Line Element Set

1 65205U 25176H 26230.08376916 .00014955 00000-0 45278-3 0 9995
2 65205 53.1581 120.0190 0001301 83.1518 276.9633 15.34405418 57875
Epoch: Aug 18, 2026 • Age: 15 hours

Current Status

Altitude 479.0 km
Apogee / Perigee N/A
Velocity 7.63 km/s
Sub-Earth Point -45.88°S, 123.17°E
Launch Date Aug 14, 2025
Age 1 year
Type internet

Technical Details

Classification Payload
Mass 575.00 kg
Dry Mass 530.00 kg
Total Mass 575.00 kg
Length 0.30 m
Diameter 4.10 m
Span 29.00 m
Shape Box + pan
Manufacturer SPXS
Bus Type Starlink V2MO
Phase Status In Orbit
Owner/State SPXS/US

Most Searched